Location: Lane
(33.5226°N, 79.8788°W)
Time: 11:31:57
(UTC+00:00)

Tiros 1 despin weight - Pass Details

Date: 06 October 2022
Orbit: 590 x 637 km, 48.2° (Epoch: 25 November)

Event Time Altitude Azimuth Distance (km) Brightness Sun altitude
Rises 22:28:35 0° 304° (WNW) 2,853 ? 5.1°
Reaches altitude 10° 22:32:16 10° 335° (NNW) 1,963 ? 4.3°
Maximum altitude 22:34:07 12° 359° (N) 1,823 ? 3.9°
Drops below altitude 10° 22:35:59 10° 24° (NNE) 1,976 ? 3.6°
Sets 22:39:44 0° 54° (NE) 2,895 ? 2.8°
